Regional Weather Roundup
Issued by NWS

Home | Current Version | Previous Version | Graphics & Text | Print | Product List | Glossary On
Versions: 1 2 3 4 5 6 7 8 9 10 11 12 13 14 15 16 17 18 19 20 21 22 23 24 25 26 27 28 29 30 31 32 33 34 35 36 37 38 39 40 41 42 43 44 45 46 47 48 49 50
000
ASUS43 KBIS 171110
RWRND

NORTH DAKOTA REGIONAL WEATHER ROUNDUP
NATIONAL WEATHER SERVICE BISMARCK ND
600 AM CDT WED SEP 17 2014

NOTE: "FAIR" INDICATES FEW OR NO CLOUDS BELOW 12,000 FEET WITH NO
SIGNIFICANT WEATHER AND/OR OBSTRUCTIONS TO VISIBILITY.


NDZ001>003-009>011-017-171200-
NORTHWEST NORTH DAKOTA

CITY           SKY/WX    TMP DP  RH WIND       PRES   REMARKS
WILLISTON      CLEAR     39  35  86 CALM      29.93S
MINOT          CLEAR     49  41  74 SW12      29.91S
MINOT AFB      CLEAR     42  40  95 W7        29.91F
$$

NDZ018>021-031>035-040>046-171200-
SOUTHWEST NORTH DAKOTA

CITY           SKY/WX    TMP DP  RH WIND       PRES   REMARKS
BISMARCK       CLEAR     38  37  97 CALM      29.95R
DICKINSON      CLEAR     42  38  85 CALM      29.93S
GARRISON         N/A     41  38  89 N3        29.93S
HETTINGER ARPT CLEAR     39  37  92 CALM      29.95S
$$

NDZ004>008-012>016-024-026-027-054-171200-
NORTHEAST NORTH DAKOTA

CITY           SKY/WX    TMP DP  RH WIND       PRES   REMARKS
GRAND FORKS    PTCLDY    45  42  89 CALM      29.92R
GRND FRKS AFB  CLEAR     47  45  93 NW1       29.92R
DEVILS LAKE    CLEAR     46  37  71 W3        29.91R
$$

NDZ022-023-025-028>030-036>039-047>053-171200-
SOUTHEAST NORTH DAKOTA

CITY           SKY/WX    TMP DP  RH WIND       PRES   REMARKS
FARGO          CLEAR     46  44  93 CALM      29.90R
JAMESTOWN      CLEAR     43  40  89 CALM      29.91S
$$



USA.gov is the U.S. government's official web portal to all federal, state and local government web resources and services.